Regional Weather Roundup
Issued by NWS Midland/Odessa, TX

Skip options and go directly to product.
Home | Oldest Version | Next Version | Current Version | All | Text Only | Save Text | Print | Product List | Glossary On

Skip product version selection by date and time.   
575
ASUS44 KMAF 272302
RWRMAF
MIDLAND AREA WEATHER ROUNDUP
NATIONAL WEATHER SERVICE MIDLAND TX
500 PM CST THU NOV 27 2014

...IN SOUTHWEST TEXAS AND SOUTHEAST NEW MEXICO...

CITY           SKY/WX    TMP DP  RH WIND       PRES   REMARKS
ALPINE         CLEAR     66  20  17 SW8       30.39S
ANDREWS        FAIR      62  29  29 S10       30.32F
ARTESIA        NOT AVBL
BIG SPRING     CLEAR     64  30  28 SE9       30.35F
CARLSBAD       CLEAR     60  30  32 S12       30.28F
DRYDEN           N/A     64  32  30 E8        30.33S
FORT STOCKTON  CLEAR     65  27  23 SE12      30.30F
GUAD PASS      NOT AVBL
HOBBS          CLEAR     59  28  31 S15       30.31F
MARFA          CLEAR     63  19  19 SE9       30.37S
MIDLAND AIRPK  CLEAR     64  31  28 S12       30.33F
MIDLAND INTL   FAIR      63  29  27 S13       30.32F
ODESSA         CLEAR     63  29  27 S9        30.32F
PECOS          CLEAR     63  29  28 CALM      30.31S
PRESIDIO       FAIR      71  23  16 CALM      30.27F
SEMINOLE       CLEAR     61  29  29 S12       30.33S
SNYDER         CLEAR     57  31  37 S12       30.35S
WINK           CLEAR     63  28  26 SE9       30.30F
$$
...OTHER STATIONS IN TEXAS...

CITY           SKY/WX    TMP DP  RH WIND       PRES   REMARKS
ABILENE        CLEAR     58  31  35 S13       30.36F
AMARILLO       CLEAR     58  30  34 S14       30.24S
AUSTIN         CLEAR     62  31  31 E5        30.40S
BROWNSVILLE    PTCLDY    68  55  63 E7        30.36R
CORPUS CHRISTI PTCLDY    64  55  72 E14       30.38S
DALLAS FTW     PTCLDY    55  21  26 VRB3      30.41F
DEL RIO        CLEAR     68  36  30 SE10      30.33F
EL PASO        SUNNY     66  21  18 SW3       30.29F
HOUSTON INT    CLEAR     62  35  36 NE6       30.42R
LUBBOCK        PTCLDY    57  30  35 S18       30.29F
SAN ANGELO     CLEAR     65  31  28 SE9       30.34F
SAN ANTONIO    CLEAR     63  34  33 E8        30.40R
WACO           CLEAR     57  27  31 S5        30.41F
WICHITA FALLS  NOT AVBL
$$
...OTHER LOCATIONS IN NEW MEXICO...

CITY           SKY/WX    TMP DP  RH WIND       PRES   REMARKS
ALAMAGORDO     PTCLDY    66  23  19 CALM      30.31S
ALBUQUERQUE    PTCLDY    59  21  23 CALM      30.34S
CANNON AFB     CLEAR     62  27  25 SW14      30.26S
CLOVIS         CLEAR     63  27  25 SW15      30.25F
HOLLOMAN AFB   PTCLDY    65  23  20 W2        30.30S
ROSWELL        CLEAR     61  29  29 S13       30.28S
RUIDOSO        CLEAR     57  19  23 NW8       30.39S
SANTA FE       CLEAR     56  20  24 SW8       30.34F
TRUTH OR CONSE SUNNY     64  21  19 S6        30.31S
TUCUMCARI      CLEAR     63  27  25 SW15      30.20F
$$

USA.gov is the U.S. government's official web portal to all federal, state and local government web resources and services.